Temp
67 69 68 69 58 51 46 54 58 63 68 71 75 75 74 73 71 64 73 78 77 76 77 78 79 79 79 79 79 78 78 78 79 79 79 79 79 79 79 79 79 80 80 80 81 80 80 80 80
65 70 68 60 51 44 50 55 59 65 71 75 76 78 75 72 75 71 73 77 78 76 78 76 79 79 79 79 78 78 78 78 78 78 79 79 79 79 79 79 79 80 80 80 81 80 80 80 80
66 68 61 54 46 45 51 58 63 68 73 73 73 79 76 71 75 75 77 78 77 75 76 77 79 79 79 79 78 78 78 78 78 78 79 79 79 78 78 79 79 80 80 80 81 80 80 80 80
64 62 57 47 44 53 59 61 62 67 71 76 74 73 75 77 75 79 79 78 75 74 75 78 78 79 79 79 78 78 78 78 78 79 79 79 78 78 78 78 79 80 80 80 80 79 79 79 79
58 52 44 38 44 54 62 66 65 66 66 69 74 72 71 75 79 78 77 78 75 74 75 77 78 78 79 79 79 78 78 78 78 78 79 78 78 78 78 78 79 79 80 80 80 79 78 78 78
53 49 39 41 44 57 60 67 65 65 67 69 73 71 69 75 75 76 77 75 77 75 75 76 78 78 78 78 78 78 78 78 78 78 78 78 77 77 77 78 78 78 79 79 79 78 78 77 77
50 44 39 38 45 52 59 66 66 66 68 69 73 68 67 71 75 76 75 76 76 76 75 75 76 77 78 78 78 77 77 77 77 77 77 77 77 77 77 77 78 78 78 78 78 77 77 77 77
54 48 38 42 45 49 60 64 68 66 68 77 77 68 66 70 74 74 74 75 76 76 75 75 74 76 75 75 77 77 77 77 77 77 77 77 77 77 77 76 77 78 77 77 77 77 77 77 76
55 42 36 43 50 53 60 59 70 74 70 72 73 70 74 73 73 71 71 72 73 74 74 74 74 74 75 75 77 77 78 77 77 77 77 76 74 75 76 76 76 77 77 77 77 77 77 76 76
51 40 44 53 57 55 61 61 64 68 68 67 71 71 73 72 71 70 69 69 70 71 72 74 74 74 74 77 75 75 76 75 74 74 74 73 73 73 75 76 77 77 77 77 77 77 77 77 73
50 48 53 56 60 62 62 61 65 63 59 67 67 68 70 71 70 70 71 72 72 72 73 74 75 75 74 75 75 75 74 74 74 73 73 72 73 73 73 72 73 73 75 74 74 73 73 73 72
45 52 57 59 62 60 60 65 63 62 65 72 71 71 70 71 69 69 69 71 71 72 73 73 74 75 75 76 75 76 75 74 74 73 72 71 71 70 71 71 71 71 72 72 71 71 71 71 71
45 50 55 62 60 59 62 62 63 60 68 73 72 71 69 70 70 68 69 68 69 69 71 72 74 73 75 74 74 75 76 75 74 73 73 72 70 70 70 70 70 70 71 71 71 70 71 71 71
52 53 56 55 56 57 59 61 61 64 69 69 70 69 69 70 70 67 68 68 68 68 70 71 72 73 74 73 75 75 76 75 74 72 73 72 71 70 69 69 70 70 71 71 71 71 71 71 72
53 46 52 52 55 56 57 55 56 67 69 68 67 67 66 70 69 70 73 71 68 68 69 71 72 71 72 72 73 73 75 74 71 72 72 73 71 70 70 69 70 71 71 71 71 71 71 70 70
48 45 43 50 55 57 58 48 58 66 65 66 68 66 65 66 70 72 72 68 68 68 67 69 72 71 71 71 71 70 71 71 72 72 72 73 72 71 70 70 71 72 72 71 71 70 70 69 70
41 36 39 46 55 57 54 47 61 65 64 64 64 64 64 63 65 68 70 69 68 67 66 68 70 70 70 69 69 69 70 70 70 71 71 72 73 73 71 71 72 71 70 70 70 69 69 70 70
36 39 43 45 51 53 48 47 60 59 62 63 62 63 62 62 65 68 68 68 68 67 67 67 69 68 68 68 67 67 67 68 68 69 70 73 73 73 71 70 71 71 70 70 70 69 67 67 67
49 45 45 48 55 52 48 49 55 57 55 58 60 61 61 61 67 68 67 67 66 67 66 66 67 67 68 67 67 66 66 66 68 69 70 71 70 70 68 68 69 70 70 71 70 68 67 66 66
47 44 43 49 55 51 49 49 54 55 57 58 60 60 61 60 62 64 64 64 65 67 66 65 66 67 68 68 65 66 65 66 66 67 68 69 69 69 68 67 67 68 68 66 65 66 66 66 67
46 44 44 47 51 50 48 45 50 56 56 58 60 61 61 62 62 62 63 64 64 63 64 66 65 65 66 64 63 63 63 63 64 64 65 67 69 69 68 68 67 67 66 66 65 63 66 64 66
40 50 51 50 45 37 47 34 44 49 53 56 59 59 58 60 62 62 63 61 62 65 64 64 63 64 64 63 63 63 62 61 62 62 65 67 68 69 70 69 68 68 67 66 65 67 66 66 64
45 54 52 52 44 38 40 38 43 47 48 54 53 53 52 53 58 61 62 67 64 63 61 62 62 62 63 63 62 62 62 62 62 62 63 63 66 67 68 68 69 67 65 67 67 68 67 66 64
56 53 52 47 40 31 38 39 40 43 44 47 52 51 52 52 53 55 58 61 60 62 62 64 64 62 62 62 62 62 62 61 61 61 62 61 63 61 63 64 64 65 66 66 66 67 66 66 66
53 47 33 29 28 28 41 39 40 44 48 49 51 49 52 54 56 55 54 57 58 59 59 61 60 58 59 58 58 58 57 57 57 58 58 57 57 57 58 60 59 60 61 62 62 62 64 64 64
47 46 30 25 25 29 42 35 40 47 49 51 52 52 54 54 54 55 57 56 55 56 57 57 57 56 57 57 56 56 56 55 55 55 55 55 56 56 58 58 58 58 58 59 58 58 59 59 59
49 43 46 36 35 33 35 39 46 49 48 51 51 52 52 53 54 54 54 53 54 54 54 55 55 55 55 56 56 56 56 56 55 55 55 55 55 58 57 56 56 56 56 56 55 54 55 56 56
53 54 41 38 28 26 33 34 37 43 46 49 49 50 52 53 53 54 53 53 53 53 53 54 54 54 54 55 55 55 55 55 55 54 53 53 53 55 55 54 54 54 54 54 53 53 55 54 55
47 47 46 43 35 28 28 33 44 45 46 48 49 50 49 49 50 50 50 51 51 52 53 53 54 54 53 53 53 53 53 53 53 52 52 52 52 52 53 53 53 53 53 52 52 52 54 53 52
48 48 41 31 32 32 31 36 48 47 47 49 49 48 48 49 49 51 52 52 51 50 51 51 52 52 52 52 52 51 51 51 50 50 51 52 51 52 52 52 52 52 52 51 51 51 51 51 51
MSLP
1010.30 1010.11 1010.07 1010.16 1011.60 1011.96 1010.92 1009.45 1008.16 1007.01 1006.02 1005.27 1004.91 1004.70 1004.49 1004.75 1005.15 1006.04 1005.33 1005.58 1005.95 1006.61 1007.17 1007.79 1008.23 1008.45 1008.65 1008.96 1009.28 1009.58 1009.85 1010.46 1010.95 1011.17 1011.49 1011.97 1012.42 1012.77 1013.15 1013.44 1013.66 1013.89 1014.17 1014.33 1014.52 1014.66 1014.71 1014.82 1014.99
1010.33 1010.23 1010.44 1011.18 1012.01 1012.32 1010.29 1008.68 1007.83 1006.66 1005.81 1005.02 1004.40 1004.01 1004.00 1004.72 1004.95 1005.55 1005.69 1006.09 1006.26 1006.70 1007.49 1008.18 1008.54 1008.80 1009.11 1009.39 1009.67 1009.82 1010.06 1010.68 1011.13 1011.50 1011.85 1012.25 1012.67 1012.84 1013.11 1013.44 1013.69 1013.99 1014.26 1014.54 1014.63 1014.74 1014.79 1014.84 1015.08
1010.40 1010.61 1011.35 1011.95 1012.15 1011.53 1009.84 1008.12 1007.26 1006.33 1005.73 1005.06 1004.68 1004.14 1004.34 1005.40 1005.36 1005.48 1005.39 1005.96 1006.70 1007.36 1007.71 1008.29 1008.81 1009.07 1009.34 1009.57 1010.04 1010.38 1010.46 1010.89 1011.51 1011.87 1012.06 1012.29 1012.67 1013.05 1013.25 1013.54 1013.73 1014.01 1014.30 1014.55 1014.74 1014.84 1015.02 1015.06 1015.22
1010.79 1011.45 1012.56 1012.28 1011.91 1010.16 1008.82 1007.82 1006.98 1006.33 1005.74 1005.14 1005.08 1004.80 1004.97 1005.68 1005.61 1005.41 1005.65 1006.10 1006.63 1007.46 1007.83 1008.31 1009.00 1009.27 1009.46 1009.74 1010.13 1010.58 1010.88 1011.14 1011.62 1012.13 1012.47 1012.64 1012.83 1013.11 1013.37 1013.59 1013.76 1014.05 1014.34 1014.62 1014.84 1014.93 1015.10 1015.13 1015.33
1011.51 1012.46 1013.25 1012.99 1011.61 1009.80 1008.55 1007.57 1006.86 1006.35 1006.02 1005.60 1005.30 1005.17 1005.48 1005.80 1005.80 1005.76 1005.94 1006.37 1006.89 1007.76 1008.01 1008.44 1008.94 1009.24 1009.49 1009.81 1010.22 1010.68 1011.07 1011.40 1011.88 1012.33 1012.83 1013.12 1013.35 1013.53 1013.69 1013.95 1014.19 1014.47 1014.65 1014.74 1014.99 1015.17 1015.22 1015.30 1015.48
1012.37 1013.22 1013.85 1013.02 1011.34 1009.27 1008.44 1007.50 1007.04 1006.51 1005.76 1005.78 1005.34 1005.32 1005.72 1005.91 1006.05 1006.07 1006.12 1006.66 1007.01 1007.64 1008.20 1008.55 1009.12 1009.45 1009.71 1009.98 1010.29 1010.70 1011.16 1011.48 1011.93 1012.27 1012.78 1013.27 1013.54 1013.79 1014.04 1014.22 1014.38 1014.66 1014.91 1015.03 1015.14 1015.29 1015.33 1015.39 1015.52
1012.40 1013.34 1013.02 1012.35 1011.05 1009.61 1008.24 1007.20 1006.88 1006.49 1005.69 1005.69 1005.08 1005.32 1005.76 1006.08 1006.18 1006.34 1006.55 1006.62 1007.02 1007.68 1008.26 1008.63 1009.15 1009.53 1009.95 1010.46 1010.59 1010.69 1011.04 1011.49 1012.00 1012.41 1012.70 1013.07 1013.52 1013.88 1014.32 1014.51 1014.67 1014.92 1015.12 1015.26 1015.32 1015.39 1015.43 1015.39 1015.38
1011.81 1012.61 1012.63 1011.97 1010.90 1009.37 1007.92 1007.01 1006.40 1006.15 1005.57 1005.16 1005.10 1005.34 1005.44 1005.75 1006.49 1006.65 1006.95 1007.01 1007.06 1007.52 1008.25 1008.64 1009.03 1009.35 1009.81 1010.29 1010.82 1011.18 1011.30 1011.38 1011.55 1012.10 1012.69 1013.17 1013.49 1013.89 1014.33 1014.67 1014.89 1015.16 1015.32 1015.33 1015.37 1015.40 1015.45 1015.44 1015.44
1011.42 1012.26 1012.12 1011.25 1010.32 1009.06 1007.86 1007.05 1006.20 1005.81 1005.66 1005.34 1005.49 1005.77 1005.41 1005.61 1006.37 1007.09 1007.13 1007.41 1007.39 1007.65 1007.70 1008.04 1008.98 1009.24 1009.49 1009.80 1010.36 1011.00 1011.53 1011.87 1012.17 1012.43 1012.62 1012.82 1013.30 1013.79 1014.21 1014.52 1014.81 1015.10 1015.36 1015.45 1015.51 1015.57 1015.57 1015.57 1015.52
1011.12 1011.42 1010.77 1009.85 1009.12 1008.36 1007.45 1007.16 1006.70 1006.37 1005.90 1005.61 1005.57 1005.90 1006.10 1006.22 1006.29 1006.82 1006.98 1007.04 1007.26 1007.21 1007.48 1007.55 1007.91 1008.66 1009.12 1009.69 1010.06 1010.43 1010.94 1011.60 1012.09 1012.50 1012.80 1013.13 1013.42 1013.81 1014.14 1014.46 1014.73 1015.00 1015.33 1015.40 1015.49 1015.65 1015.68 1015.64 1015.67
1010.18 1009.59 1009.32 1008.87 1008.28 1007.95 1007.42 1007.12 1006.56 1006.29 1006.14 1005.82 1005.74 1005.83 1006.49 1006.78 1006.88 1006.84 1007.12 1006.73 1005.64 1006.36 1006.84 1007.00 1007.13 1007.43 1007.91 1008.65 1009.54 1010.29 1010.83 1011.21 1011.73 1012.14 1012.51 1012.96 1013.33 1013.67 1013.99 1014.45 1014.77 1015.05 1015.34 1015.58 1015.62 1015.70 1015.69 1015.64 1015.67
1009.89 1009.04 1008.72 1008.28 1007.86 1007.69 1007.49 1006.75 1006.23 1006.28 1006.15 1005.58 1005.59 1005.61 1006.20 1006.54 1006.83 1006.79 1007.17 1007.12 1006.81 1006.78 1007.14 1007.57 1007.98 1008.17 1008.59 1008.40 1009.31 1010.02 1010.87 1011.13 1011.45 1011.85 1012.28 1012.98 1013.30 1013.66 1013.98 1014.22 1014.50 1014.82 1015.17 1015.40 1015.44 1015.53 1015.60 1015.56 1015.61
1009.27 1008.85 1008.32 1007.89 1007.81 1007.53 1007.14 1006.51 1006.49 1006.26 1006.08 1005.45 1005.45 1005.66 1005.83 1006.08 1006.49 1006.99 1006.98 1007.18 1007.43 1007.18 1007.38 1007.94 1008.39 1008.74 1008.74 1009.38 1008.98 1009.92 1010.67 1011.15 1011.46 1012.04 1012.29 1012.51 1012.96 1013.56 1013.81 1014.16 1014.40 1014.53 1014.84 1014.95 1015.08 1015.26 1015.39 1015.30 1015.17
1008.13 1008.08 1008.04 1007.85 1007.63 1007.53 1007.10 1006.39 1006.64 1005.61 1005.30 1005.37 1005.36 1005.09 1005.18 1005.47 1005.84 1006.42 1006.61 1006.63 1007.03 1007.22 1007.35 1007.85 1008.27 1008.69 1008.85 1009.18 1009.08 1009.59 1010.37 1010.70 1011.37 1011.87 1011.95 1012.26 1012.75 1013.01 1013.40 1014.13 1014.40 1014.38 1014.35 1014.41 1014.55 1014.81 1015.06 1015.04 1014.99
1007.94 1008.15 1007.85 1007.64 1007.52 1007.40 1007.02 1006.14 1005.78 1005.69 1005.42 1005.10 1004.92 1004.90 1005.04 1005.23 1005.50 1005.46 1005.60 1006.06 1006.54 1007.12 1007.25 1007.43 1007.84 1008.26 1008.73 1008.82 1009.14 1009.75 1010.11 1010.56 1011.23 1011.47 1011.75 1011.81 1011.67 1012.44 1012.79 1013.09 1014.03 1013.82 1013.77 1014.08 1014.28 1013.96 1014.02 1014.48 1014.70
1007.77 1007.99 1007.90 1007.05 1007.22 1007.03 1006.76 1005.62 1005.36 1005.02 1005.06 1005.12 1004.65 1005.05 1005.17 1005.12 1004.82 1005.13 1005.54 1005.89 1006.18 1006.77 1007.24 1007.67 1007.56 1007.91 1008.42 1008.63 1009.01 1009.46 1009.90 1010.46 1010.85 1010.89 1011.31 1011.40 1011.40 1011.54 1012.08 1012.21 1012.60 1013.16 1013.29 1013.34 1013.49 1014.05 1013.95 1014.16 1014.06
1007.48 1007.33 1007.24 1006.92 1006.39 1006.46 1006.44 1005.66 1004.55 1004.36 1004.76 1004.72 1004.69 1004.98 1005.08 1005.12 1005.19 1005.04 1005.11 1005.56 1006.05 1006.56 1006.97 1007.49 1007.85 1008.12 1008.38 1008.68 1008.96 1009.29 1009.92 1010.11 1010.08 1010.42 1010.99 1010.27 1010.75 1011.40 1010.99 1011.71 1011.17 1011.89 1012.98 1013.03 1012.84 1013.07 1012.66 1013.07 1013.71
1006.74 1006.78 1006.43 1006.06 1005.58 1005.71 1006.09 1005.80 1004.94 1004.53 1004.68 1004.62 1004.67 1004.78 1005.18 1005.21 1004.64 1004.45 1004.88 1005.38 1006.21 1006.86 1007.13 1007.39 1007.66 1008.07 1008.56 1008.87 1009.30 1009.64 1009.98 1010.00 1010.02 1010.72 1011.11 1010.79 1011.04 1011.33 1011.59 1011.72 1011.35 1010.42 1011.33 1012.59 1012.78 1012.76 1012.41 1012.15 1013.12
1005.96 1005.87 1005.64 1005.30 1004.89 1005.05 1005.60 1005.68 1005.22 1004.45 1004.77 1004.88 1004.87 1005.14 1005.23 1005.20 1004.28 1004.41 1004.83 1005.53 1006.17 1006.69 1007.04 1007.35 1007.78 1008.19 1008.51 1009.05 1009.58 1010.03 1010.21 1010.33 1010.64 1010.71 1010.86 1011.04 1011.24 1011.75 1011.67 1011.86 1011.49 1011.55 1011.68 1012.16 1012.86 1012.96 1012.62 1013.08 1012.98
1005.87 1005.66 1005.47 1004.95 1004.75 1004.87 1005.08 1005.28 1004.79 1004.42 1004.37 1004.26 1004.24 1004.68 1004.76 1004.88 1004.79 1004.81 1004.89 1005.24 1005.56 1005.82 1006.39 1007.04 1007.55 1008.01 1008.43 1008.95 1009.54 1009.78 1010.07 1010.20 1010.17 1010.31 1010.50 1011.04 1011.37 1011.25 1011.36 1011.17 1011.39 1011.49 1011.79 1012.36 1012.72 1012.99 1012.44 1013.19 1013.53
1004.90 1004.98 1005.13 1004.93 1004.97 1004.93 1004.88 1005.02 1004.60 1003.94 1003.74 1003.66 1003.72 1003.66 1004.23 1004.53 1004.60 1004.62 1005.05 1005.18 1005.42 1005.85 1006.05 1006.45 1007.34 1008.06 1008.63 1009.19 1009.56 1010.08 1010.24 1010.48 1010.71 1010.91 1010.97 1011.21 1011.48 1011.13 1011.05 1011.25 1011.24 1011.34 1011.55 1011.71 1011.80 1011.96 1012.34 1013.05 1012.35
1004.37 1004.72 1004.85 1005.10 1005.60 1005.98 1005.31 1005.57 1004.67 1003.99 1003.79 1003.71 1003.69 1004.05 1004.20 1004.29 1004.32 1004.41 1004.68 1005.07 1005.15 1005.29 1006.26 1007.02 1007.64 1008.21 1008.81 1009.42 1009.95 1010.45 1011.02 1011.39 1011.25 1011.26 1011.05 1010.92 1010.65 1010.81 1010.88 1010.88 1010.99 1010.96 1011.04 1011.20 1011.36 1011.94 1011.95 1011.88 1012.46
1003.43 1003.91 1004.71 1005.35 1006.02 1006.35 1006.24 1006.30 1004.98 1004.47 1004.36 1004.09 1004.27 1005.06 1005.21 1004.98 1004.73 1004.50 1004.40 1004.27 1005.16 1005.98 1006.66 1007.12 1007.78 1008.45 1009.02 1009.42 1010.08 1010.68 1011.18 1011.51 1011.31 1011.31 1010.99 1011.31 1010.98 1010.71 1010.57 1010.78 1011.07 1011.14 1010.92 1010.84 1011.20 1011.21 1011.42 1011.81 1012.09
1002.43 1003.72 1004.89 1005.89 1006.91 1007.03 1006.76 1006.85 1005.80 1005.68 1005.94 1005.85 1005.50 1005.89 1005.76 1005.61 1005.41 1004.95 1004.98 1005.39 1006.01 1006.38 1007.12 1007.81 1008.20 1008.86 1009.17 1009.54 1010.14 1010.53 1010.99 1011.34 1011.48 1011.85 1012.04 1011.98 1012.45 1012.35 1011.51 1011.25 1011.36 1011.43 1011.25 1011.16 1010.79 1010.18 1010.34 1011.07 1011.22
1001.71 1002.98 1005.11 1007.08 1007.60 1007.01 1006.29 1007.24 1006.17 1006.32 1006.32 1006.50 1006.58 1007.07 1006.76 1006.44 1006.29 1006.01 1005.84 1006.14 1006.80 1007.33 1007.89 1008.42 1008.71 1009.46 1009.74 1010.05 1010.41 1010.90 1011.17 1011.67 1012.07 1012.33 1012.42 1012.69 1012.91 1012.71 1012.51 1011.98 1012.02 1012.07 1012.09 1012.29 1011.88 1011.58 1011.36 1011.09 1011.23
1000.73 1001.69 1003.30 1005.07 1006.46 1007.16 1007.12 1006.88 1006.69 1006.73 1006.74 1006.96 1007.27 1007.50 1007.02 1007.09 1007.22 1007.17 1007.16 1007.45 1007.86 1008.42 1008.84 1009.10 1009.61 1010.17 1010.71 1011.14 1011.44 1011.59 1011.76 1012.14 1012.55 1012.68 1012.93 1013.21 1013.19 1013.11 1013.07 1012.68 1012.49 1012.61 1013.00 1012.93 1012.73 1012.57 1012.46 1012.16 1012.10
1000.18 1001.07 1002.01 1004.26 1005.55 1006.94 1007.33 1007.49 1007.28 1007.17 1007.22 1007.53 1007.82 1007.82 1007.75 1008.03 1008.10 1008.29 1008.46 1008.67 1009.08 1009.54 1010.05 1010.13 1010.32 1011.03 1011.66 1011.84 1011.94 1012.26 1012.55 1012.58 1012.83 1012.97 1013.04 1013.16 1013.58 1013.46 1013.71 1013.09 1012.88 1013.12 1013.23 1012.97 1012.86 1012.78 1012.72 1012.57 1012.37
998.61 1000.46 1002.27 1003.84 1005.41 1006.80 1007.40 1007.39 1007.16 1007.60 1007.72 1007.98 1008.30 1008.33 1008.56 1008.84 1009.06 1009.53 1009.91 1010.17 1010.52 1010.82 1011.10 1011.20 1011.34 1011.83 1012.22 1012.23 1012.69 1013.02 1013.18 1013.39 1013.71 1013.91 1013.94 1013.90 1013.67 1013.95 1013.77 1014.00 1013.56 1013.91 1013.85 1013.59 1013.56 1013.35 1013.05 1012.67 1012.49
999.28 1000.13 1001.74 1003.14 1004.64 1005.75 1007.25 1007.46 1006.82 1007.34 1007.80 1008.24 1008.80 1009.12 1009.33 1009.67 1010.26 1010.80 1011.18 1011.37 1011.77 1011.99 1012.11 1012.21 1012.63 1012.65 1013.03 1013.23 1013.63 1013.67 1013.72 1013.89 1013.94 1014.14 1014.64 1014.54 1014.22 1013.81 1014.11 1014.37 1014.33 1014.42 1014.07 1013.85 1014.07 1013.82 1013.13 1012.93 1012.95
999.16 1000.12 1001.26 1002.63 1004.68 1005.33 1005.89 1007.36 1006.96 1007.50 1008.12 1008.60 1009.39 1009.95 1010.44 1010.69 1011.20 1011.81 1012.19 1012.41 1012.91 1013.28 1013.43 1013.41 1013.52 1013.76 1014.17 1014.21 1014.34 1014.62 1014.78 1014.99 1015.04 1015.06 1015.41 1015.26 1014.77 1014.62 1014.58 1014.88 1014.82 1014.30 1014.16 1013.99 1013.91 1013.57 1013.31 1013.07 1012.81
Wind_Speed
8 6 1 4 4 5 5 8 2 3 3 1 6 5 7 3 0 4 5 3 11 13 11 14 16 18 19 20 19 18 18 17 17 18 18 18 17 17 15 14 13 12 13 12 12 13 14 14 14
3 3 4 3 6 2 7 4 6 4 2 9 6 7 2 3 2 4 4 5 12 14 12 9 15 15 17 19 19 19 19 17 17 17 17 17 16 16 15 14 13 13 13 12 12 13 14 14 13
3 3 4 5 5 8 8 5 8 3 5 3 5 4 3 2 6 4 3 13 13 11 9 10 14 14 16 18 18 17 19 19 17 16 17 17 16 14 14 13 12 13 12 12 12 12 12 12 11
3 5 5 4 8 9 7 3 1 5 5 5 4 6 4 4 4 2 11 14 14 10 8 13 13 13 15 17 17 17 17 18 17 15 14 14 14 13 12 12 12 11 11 11 11 10 10 10 9
5 3 2 3 7 7 3 1 3 5 4 2 5 6 1 2 5 8 13 13 15 10 9 10 14 14 15 16 17 17 16 16 15 14 13 12 11 10 10 9 8 7 7 9 9 8 7 8 8
4 4 2 8 7 6 3 4 1 3 4 2 6 4 2 2 5 7 12 12 13 13 10 9 13 12 13 15 16 17 15 16 15 14 13 11 9 8 7 7 7 6 5 6 6 6 6 6 7
7 4 6 4 4 8 5 6 4 7 10 2 3 3 1 3 6 9 10 13 14 12 11 9 8 11 11 8 11 15 17 16 14 13 12 12 10 8 6 6 5 4 4 4 5 5 6 6 6
6 5 4 5 5 7 3 4 5 5 3 4 1 4 6 4 9 10 10 12 13 12 9 9 8 8 8 7 9 9 12 15 17 16 13 11 10 8 6 6 4 3 4 5 6 6 7 6 7
4 2 4 6 7 5 2 2 1 0 2 2 2 4 4 14 13 10 11 10 13 11 13 12 8 7 9 9 10 9 11 9 9 10 13 12 6 6 6 6 5 4 5 6 6 7 7 7 8
6 5 11 8 6 3 2 1 1 2 5 3 3 4 5 12 14 14 14 14 13 16 14 14 14 13 10 7 9 9 10 7 5 5 5 3 4 3 4 5 6 5 6 6 7 8 8 8 3
7 8 6 5 5 8 5 2 5 4 5 5 4 4 8 7 7 10 11 15 22 18 14 16 15 15 16 13 9 6 5 5 5 8 7 5 4 3 3 2 1 1 4 2 4 4 3 4 3
4 7 4 8 7 5 5 3 6 7 8 8 4 5 9 12 10 9 8 10 8 10 10 9 8 9 9 7 6 6 5 5 5 6 7 4 3 3 3 2 3 3 2 3 4 3 4 4 5
4 4 6 12 8 6 6 11 9 2 6 11 9 8 13 14 11 6 6 5 3 5 6 8 7 6 7 5 8 6 6 5 4 5 5 6 5 4 3 3 3 3 3 4 5 4 4 5 6
6 11 10 5 6 5 8 10 6 3 5 8 8 12 14 16 12 5 7 9 7 6 8 9 10 9 8 8 8 7 6 6 5 4 6 6 4 4 4 2 3 4 5 4 4 5 5 6 5
4 3 5 5 8 8 3 14 7 9 9 12 7 9 7 14 9 16 16 11 7 4 8 12 12 9 9 10 9 8 8 7 6 5 6 9 9 6 5 5 4 5 5 5 4 6 5 5 4
5 6 9 7 9 8 10 9 3 7 7 11 11 8 8 9 13 12 9 6 6 5 6 5 8 11 11 10 8 5 6 5 5 6 7 10 9 9 8 6 6 6 4 4 4 4 3 3 4
4 5 5 2 10 7 9 4 12 10 9 12 9 7 8 6 6 8 8 7 5 4 5 5 5 8 8 6 5 6 7 7 6 5 7 7 10 11 8 6 8 6 4 4 4 6 4 2 4
6 6 4 7 8 10 6 3 9 3 5 9 7 7 8 8 14 11 9 6 7 6 5 6 5 6 5 5 4 3 3 2 2 1 3 3 3 4 3 4 5 4 5 4 3 5 1 3 2
12 4 9 5 7 6 7 6 10 8 4 8 9 8 9 10 11 8 6 7 7 7 7 6 6 6 7 4 4 2 3 2 1 1 2 1 2 4 4 4 2 1 2 2 2 1 0 3 2
13 6 4 2 4 5 4 5 8 4 6 9 11 9 10 6 6 7 7 8 9 10 7 8 8 7 5 3 3 1 2 2 2 2 2 3 3 4 4 3 4 5 4 4 3 2 1 2 3
19 14 6 5 2 1 2 5 5 5 5 6 7 6 7 11 11 8 7 11 8 8 11 9 5 6 5 6 4 3 3 2 2 2 1 2 4 2 3 5 4 6 6 8 9 5 5 6 3
18 10 6 6 4 3 3 5 4 3 6 6 9 8 7 8 7 7 7 7 9 9 7 7 7 7 6 6 3 1 2 2 1 1 1 2 2 3 3 4 5 6 5 4 3 2 3 2 9
7 16 11 4 4 2 2 4 8 1 3 7 3 8 5 6 8 8 9 13 3 8 7 8 9 8 7 6 5 4 2 2 2 1 3 3 2 2 1 3 4 5 4 3 5 4 6 6 4
13 14 8 5 5 4 7 6 7 1 3 7 4 5 6 6 7 6 4 7 8 9 9 11 12 8 6 7 6 6 4 3 4 4 4 5 3 4 7 6 5 6 4 4 6 8 9 8 8
18 17 5 1 3 6 9 6 5 3 4 5 2 4 7 8 8 7 8 10 11 12 12 12 13 11 10 11 10 9 9 9 7 4 5 6 3 4 8 8 8 7 8 8 7 5 2 1 3
13 12 7 7 6 4 1 7 4 2 3 4 5 7 12 13 11 12 12 12 14 13 12 14 15 14 11 10 9 9 9 6 6 7 5 4 4 4 6 8 8 10 8 7 7 5 5 4 5
23 11 9 7 1 7 4 3 2 4 6 6 8 12 14 14 13 14 14 13 14 13 12 13 14 13 10 9 9 9 7 8 7 6 5 5 6 6 7 8 9 8 7 7 6 4 6 5 5
23 12 9 2 6 6 3 5 6 5 7 8 10 15 15 14 15 15 14 14 13 12 11 13 12 12 9 9 7 6 7 8 7 7 8 7 7 8 8 8 7 6 6 7 7 5 4 5 3
10 12 5 6 4 7 6 3 4 6 6 12 11 12 12 13 13 12 12 13 11 11 11 12 10 11 10 8 6 8 8 8 8 8 6 5 6 7 8 8 8 6 5 5 5 5 4 5 4
4 14 6 7 2 3 4 3 3 7 7 9 11 10 9 12 12 12 12 14 13 11 11 10 9 10 6 6 8 8 7 6 6 6 4 4 6 7 5 5 5 6 6 5 5 6 6 6 5
Wind_Direction
320 309 339 33 44 54 254 252 255 311 344 302 274 257 247 52 175 236 332 84 117 126 137 143 142 138 133 131 129 124 118 118 117 117 119 123 130 136 137 137 137 141 145 144 141 135 125 122 125
332 311 42 78 116 163 258 213 186 217 278 313 310 326 316 37 88 107 94 100 127 126 137 135 141 136 132 130 130 130 125 121 120 122 125 130 136 138 139 140 140 145 149 149 148 142 138 136 138
314 33 99 144 170 186 237 175 173 256 313 307 348 300 3 14 346 179 133 126 120 116 122 141 138 133 132 130 128 129 127 126 127 130 135 137 139 140 141 141 140 149 154 157 157 151 147 143 145
55 16 26 131 214 253 206 165 92 334 39 39 5 323 70 76 321 308 135 126 118 113 115 136 135 133 135 132 130 128 128 129 132 134 135 138 139 138 139 144 146 156 162 164 164 158 157 153 152
34 59 116 229 243 245 245 298 22 339 317 9 325 285 319 7 42 110 122 127 124 111 122 132 138 139 139 135 132 132 132 131 132 132 135 136 134 137 138 140 143 157 165 168 171 168 170 162 160
48 94 114 222 235 268 292 220 263 251 258 293 316 276 236 180 123 125 120 124 124 126 123 128 137 136 140 142 140 138 137 135 137 139 140 141 142 142 141 142 148 164 173 179 185 189 189 180 178
133 106 217 216 254 274 192 217 219 247 275 221 252 251 197 173 142 121 121 124 121 123 128 129 132 140 131 139 144 144 144 142 141 144 145 146 147 147 148 147 156 167 183 203 212 215 217 212 210
125 124 191 224 189 268 249 201 225 199 262 304 67 252 272 171 132 124 124 128 130 135 135 142 144 148 137 135 139 149 154 155 153 155 153 152 155 156 158 175 183 194 214 222 231 235 241 243 247
125 139 205 210 175 224 284 180 221 341 265 299 342 291 297 132 135 134 135 142 145 149 155 151 155 156 155 149 154 152 160 155 155 159 160 159 162 165 183 184 201 219 236 248 253 257 260 263 267
157 181 207 202 177 175 251 235 268 264 326 310 304 43 94 143 151 156 168 164 167 168 171 165 162 170 157 162 160 159 162 158 157 155 159 141 136 148 168 195 215 233 247 255 261 265 267 273 284
201 222 176 200 175 195 241 272 211 175 261 204 255 227 162 171 178 169 188 190 178 179 178 187 179 170 166 165 164 166 166 160 165 167 170 160 152 165 159 160 195 211 266 282 293 292 273 270 274
228 212 182 207 209 190 220 231 278 171 231 246 221 210 176 191 212 204 211 213 201 189 188 183 175 168 169 153 146 157 168 172 172 180 156 155 160 170 173 180 185 200 206 253 254 261 271 276 274
204 220 209 230 229 239 271 254 258 246 266 260 262 213 209 206 194 210 228 259 260 134 157 161 156 161 154 160 140 147 166 170 170 178 172 168 165 175 169 203 197 200 196 221 245 250 260 262 260
205 194 226 232 227 230 221 253 179 287 330 269 257 246 212 209 186 179 229 226 204 159 148 148 158 163 161 160 151 152 173 167 174 184 180 164 170 176 164 188 228 232 223 229 224 238 249 262 262
230 261 272 205 218 249 170 275 213 225 245 267 254 229 220 217 169 201 216 230 177 178 178 175 169 161 160 149 154 169 179 175 185 182 187 189 172 177 177 164 228 226 207 223 230 227 220 242 248
145 158 232 198 176 240 155 258 255 225 202 242 244 206 218 224 207 208 210 211 180 163 180 162 159 167 172 173 165 162 167 172 187 178 192 191 185 181 181 194 191 226 218 218 212 264 263 268 254
232 186 175 180 178 194 175 226 252 219 200 231 237 196 214 232 246 224 207 200 169 147 139 162 175 185 177 152 147 147 168 178 181 189 201 197 196 199 180 204 194 178 225 230 227 223 183 230 268
190 155 181 173 204 185 176 241 285 272 184 231 226 215 198 212 234 215 209 176 150 162 164 169 169 160 139 118 111 113 145 163 151 230 296 213 225 210 274 251 244 179 153 259 255 250 189 151 160
192 154 183 187 195 147 206 203 244 259 207 243 249 229 227 215 232 242 173 166 159 177 187 182 168 169 154 146 148 151 195 122 176 183 274 197 137 164 164 220 183 153 213 213 246 249 110 340 54
232 190 188 252 144 140 185 227 232 227 220 199 219 220 218 218 230 227 195 175 186 191 190 184 190 176 152 108 86 107 138 208 185 191 203 196 190 176 207 194 199 207 200 187 140 178 41 238 230
210 206 168 131 63 48 112 302 238 243 220 213 234 217 202 213 212 218 199 205 184 190 194 196 149 123 118 100 110 66 56 37 21 309 242 217 234 261 266 274 262 221 200 221 211 173 179 244 257
205 174 156 148 93 188 115 265 279 237 258 218 225 210 219 235 244 189 205 189 201 202 102 113 114 119 115 128 119 53 51 64 274 251 260 250 267 250 236 252 279 266 235 220 202 231 236 198 251
197 161 178 142 132 102 285 81 265 340 237 229 59 75 53 337 253 236 206 206 114 112 117 116 118 113 121 132 152 144 142 199 194 350 4 331 353 90 201 300 255 229 211 202 221 245 240 207 182
155 159 144 71 105 256 193 138 281 90 297 309 1 36 42 13 357 360 86 88 90 103 99 106 108 101 114 122 125 123 103 71 53 32 49 43 33 342 19 26 28 3 346 267 234 218 211 213 208
162 154 118 106 190 216 180 140 230 320 323 250 293 45 74 68 56 47 74 86 84 89 97 101 94 75 71 73 76 77 77 80 86 79 75 71 50 25 11 28 30 28 16 356 356 358 351 314 250
183 161 149 154 153 157 193 186 263 35 42 65 86 86 77 71 72 79 86 85 78 78 84 95 94 88 77 83 79 77 81 88 79 72 68 49 41 41 29 33 38 36 23 14 12 11 6 15 356
186 195 153 106 167 112 168 62 59 70 62 73 87 87 83 83 73 70 69 71 76 74 72 83 87 84 82 80 77 64 60 69 81 80 80 78 43 43 28 36 35 30 18 16 11 20 8 3 354
181 154 155 18 147 125 211 166 171 166 139 116 106 99 91 84 78 74 69 69 68 67 68 66 75 81 71 68 52 63 60 57 53 58 56 51 60 34 31 14 36 21 9 7 357 349 340 356 354
145 169 133 135 128 142 138 223 200 156 153 134 118 104 99 91 85 80 76 72 71 68 68 72 69 78 70 67 58 60 56 57 63 61 38 29 34 47 31 11 5 355 360 2 336 317 323 336 324
135 169 119 129 175 88 116 154 92 126 126 135 112 94 88 90 94 90 86 82 69 63 56 60 54 62 63 73 77 73 72 64 62 68 49 24 37 19 18 357 341 349 342 328 323 327 333 330 318